Regional Weather Roundup
Issued by NWS

Home | Current Version | Previous Version | Text Only | Print | Product List | Glossary On
Versions: 1 2 3 4 5 6 7 8 9 10 11 12 13 14 15 16 17 18 19 20 21 22 23 24 25 26 27 28 29 30 31 32 33 34 35 36 37 38 39 40 41 42 43 44 45 46 47 48 49 50
000
ASUS42 KFFC 261003
RWRGA
WEATHER ROUNDUP FOR GEORGIA
NATIONAL WEATHER SERVICE PEACHTREE CITY GA
600 AM EDT MON SEP 26 2016

NOTE: "FAIR" INDICATES FEW OR NO CLOUDS BELOW 12,000 FEET WITH NO
SIGNIFICANT WEATHER AND/OR OBSTRUCTIONS TO VISIBILITY.

* = USE WITH CAUTION. THE STATIONS MARKED WITH AN ASTERISK MAY NOT
REPORT WEATHER SUCH AS PRECIPITATION, FOG, OR THUNDER AND ARE NOT
QUALITY CONTROLLED BY NWS.

THE REMARK "TC" DENOTES TEMPERATURE READING IN DEGREES CELSIUS.

GAZ001>058-261100-
NORTH GEORGIA

CITY           SKY/WX    TMP DP  RH WIND       PRES   REMARKS
ATLANTA        PTCLDY    72  67  84 SE7       30.07R
ATHENS         CLEAR     67  66  97 E3        30.09S
CHAMBLEE       CLEAR     69  64  84 CALM      30.08R
PEACHTREE CITY CLEAR     67  66  97 CALM      30.08R
ROME           CLEAR     66  61  84 CALM      30.04S
WEST ATLANTA   CLEAR     68  64  87 CALM      30.07R
GAINESVILLE    PTCLDY    69  65  86 E3        30.13R
CARTERSVILLE   CLEAR     66  64  93 SE3       30.07R


CITY           SKY/WX    TMP DP  RH WIND       PRES   REMARKS
DALTON*        CLEAR     70  64  83 S5        30.05F
MARIETTA       CLEAR     72  65  79 E2        30.08R
CANTON*        CLEAR     68  61  77 CALM      30.11R
BLAIRSVILLE*     N/A    N/A N/A N/A MISG      30.13R
$$

GAZ059>098-102>109-261100-
CENTRAL GEORGIA

CITY           SKY/WX    TMP DP  RH WIND       PRES   REMARKS
AUGUSTA-BUSH   PTCLDY    66  66 100 CALM      30.05S FOG
AUGUSTA-DANIEL PTCLDY    73  69  87 CALM      30.07S
COLUMBUS       MOCLDY    71  67  87 CALM      30.04R
MACON          CLEAR     66  64  93 CALM      30.05S FOG
ROBINS AFB     PTCLDY    67  66  96 CALM      30.05R


CITY           SKY/WX    TMP DP  RH WIND       PRES   REMARKS
LAGRANGE*      MOCLDY    67  67 100 CALM      30.06R
MILLEDGEVILLE* MOCLDY    72  70  94 CALM      30.07S
$$

GAZ099>101-110>166-261100-
SOUTH GEORGIA

CITY           SKY/WX    TMP DP  RH WIND       PRES   REMARKS
SAVANNAH       CLOUDY    75  72  90 NE7       30.02S
VALDOSTA       CLEAR     69  69 100 CALM      30.02R
ALMA           PTCLDY    71  70  96 NW3       30.02S FOG
ST SIMONS      MOCLDY    79  71  76 E6        29.98S
FT STEWART     CLOUDY    73  71  94 N3        30.00R
ALBANY         PTCLDY    72  69  90 CALM      30.05R
HUNTER AFB     CLOUDY    75  75 100 NE3       29.99S
MOODY AFB      CLEAR     70  68  95 N5        30.01R
BRUNSWICK      MOCLDY    73  73 100 CALM      30.00S


CITY           SKY/WX    TMP DP  RH WIND       PRES   REMARKS
BAINBRIDGE*    CLEAR     72  70  94 CALM      30.02R
MOULTRIE*      PTCLDY    72  70  94 CALM      30.03S
VIDALIA*       CLOUDY    72  72 100 CALM      30.05R FOG
WAYCROSS*      PTCLDY    73  73 100 CALM      30.02R FOG
DOUGLAS*       PTCLDY    72  70  94 CALM      30.04S
$$



USA.gov is the U.S. government's official web portal to all federal, state and local government web resources and services.